Miscellaneous Local Product
Issued by NWS North Platte, NE

Home | Current Version | Previous Version | Text Only | Print | Product List | Glossary On
Versions: 1 2 3 4 5 6 7 8 9 10 11 12 13 14 15 16 17 18 19 20 21 22 23 24 25 26 27 28 29 30 31 32 33 34 35 36 37 38 39 40 41 42 43 44 45 46 47 48 49 50
000
AXUS43 KLBF 220010
MISLBF


WESTERN AND NORTH CENTRAL NEBRASKA HOURLY WEATHER ROUNDUP
NATIONAL WEATHER SERVICE NORTH PLATTE NE
700 PM CDT MON MAY 21 2018

NOTE: "FAIR" INDICATES FEW OR NO CLOUDS BELOW 12,000 FEET WITH NO
SIGNIFICANT WEATHER AND/OR OBSTRUCTIONS TO VISIBILITY.

NOTE: STATIONS NOT REPORTING VARIABLES SUCH AS SKY/WEATHER OR
PRESSURE ARE PROVIDED BY RAWS AND APRS NETWORKS AND ARE NOT UNDER
NATIONAL WEATHER SERVICE QUALITY CONTROL.

...OBSERVATIONS IN AND NEAR THE EASTERN PANHANDLE OF NEBRASKA...

CITY           SKY/WX    TMP DP  RH WIND       PRES   REMARKS
PINE RIDGE     SUNNY     74  54  49 S9        29.91S
GORDON         FAIR      73  54  50 S6        29.92F
CHADRON        MOSUNNY   76  55  48 SE8       29.89R
ALLIANCE       CLOUDY    68  57  68 SE8       29.94R
SIDNEY         MOSUNNY   72  55  55 E7        29.96R
$$

...OBSERVATIONS IN NORTHERN NEBRASKA AND FAR SOUTHERN SOUTH DAKOTA...

CITY           SKY/WX    TMP DP  RH WIND       PRES   REMARKS
WINNER         FAIR      75  54  47 SE9       29.91F
VALENTINE      MOSUNNY   76  53  44 S12       29.92S
AINSWORTH      MOSUNNY   71  56  59 S9        29.94F
O`NEILL        SUNNY     73  57  57 S5        29.96S
THEDFORD       MOSUNNY   74  56  52 S9        29.93F
BROKEN BOW     PTSUNNY   73  60  63 SE13      29.94F
ORD            MOSUNNY   71  58  63 S8        29.94F
ALBION         PTSUNNY   73  58  60 SW8       29.97S
VALENTINE NWR    N/A     73  53  50 S9          N/A
HALSEY           N/A     74  55  51 S7G15       N/A
BUTTE            N/A     72  52  49 SE8         N/A
CHAMBERS         N/A     78  55  44 SW3         N/A
EWING            N/A     72  59  62 S5          N/A
$$

...OBSERVATIONS IN SOUTHWEST NEBRASKA AND FAR NORTHEAST COLORADO...

CITY           SKY/WX    TMP DP  RH WIND       PRES   REMARKS
WRAY           FAIR      77  54  44 SE3       29.89F
HOLYOKE        FAIR      79  55  44 SE8       29.91F
IMPERIAL       MOSUNNY   77  58  51 SE6       29.89F
OGALLALA       MOSUNNY   77  57  50 S7        29.91F
NORTH PLATTE   MOSUNNY   77  60  55 S10       29.91S
MCCOOK         PTSUNNY   79  60  52 S13       29.89F
LEXINGTON      PTSUNNY   74  62  65 S9        29.92F
STAPLETON        N/A     75  59  57 CALM        N/A
GOTHENBURG       N/A     76  55  47 S10         N/A
CALLAWAY         N/A     74  62  66 SE16        N/A
$$

...OBSERVATIONS IN CENTRAL LINCOLN COUNTY AREA...

CITY           SKY/WX    TMP DP  RH WIND       PRES   REMARKS
N.P. AIRPORT   MOSUNNY   77  60  55 S10       29.91S
N.P. DOWNTOWN    N/A     79  60  51 CALM        N/A
N.P. SOUTHEAST   N/A     78  59  52 S7          N/A
$$

...OBSERVATIONS ACROSS THE ROCKIES AND WESTERN HIGH PLAINS...

CITY           SKY/WX    TMP DP  RH WIND       PRES   REMARKS
RAPID CITY     SUNNY     73  51  46 E7        29.90R
SCOTTSBLUFF    CLOUDY    70  59  68 SE7       29.94R
CHEYENNE       LGT RAIN  59  52  77 N15       30.04R
DENVER         PTSUNNY   78  34  20 SE20      29.95R
BERTHOUD PASS  CLOUDY    37  28  70 SE16G23   30.39S WCI  28
COPPER MTN     CLOUDY    52  27  37 E10G21    30.36S
MONARCH PASS   CLOUDY    36  32  87 MISG      30.48F
ASPEN          CLOUDY    69  23  17 CALM      30.03F
STEAMBOAT      FAIR      71  28  20 W7        30.00S
LARAMIE        PTSUNNY   66  36  32 SE15      30.04S
CASPER         PTSUNNY   75  36  24 CALM      29.92S
$$

...OBSERVATIONS ACROSS THE NORTHERN PLAINS...

CITY           SKY/WX    TMP DP  RH WIND       PRES   REMARKS
BISMARCK       SUNNY     74  48  39 S8        29.91S
FARGO          CLOUDY    69  54  58 S12       29.95S
PIERRE         SUNNY     74  47  38 S7        29.89F
SIOUX FALLS    CLOUDY    68  57  68 CALM      29.97F
$$

...OBSERVATIONS ACROSS THE CENTRAL AND SOUTHERN PLAINS...

CITY           SKY/WX    TMP DP  RH WIND       PRES   REMARKS
OMAHA          MOSUNNY   75  56  51 VRB3      29.95F
GRAND ISLAND   CLOUDY    73  58  59 CALM      29.97F
KANSAS CITY    PTSUNNY   69  59  70 CALM      29.99F
WICHITA        MOSUNNY   78  60  53 S9        29.97F
DODGE CITY     SUNNY     81  57  43 S23G29    29.94F
OKLAHOMA CITY  MOSUNNY   79  61  53 S6        29.96F
DALLAS         PTSUNNY   85  67  54 S9        29.94S
AMARILLO       MOSUNNY   77  53  43 S16       30.02S
$$




USA.gov is the U.S. government's official web portal to all federal, state and local government web resources and services.